FW8293 Weather Reports


time (UTC)temp
C
wind
direction
speed
KPH
gust
KPH
rain 1hr
cm
rain 24hr
cm
rain mn
cm
humidity
%
barometer
mb
20260503184535 19 281 1.6 6.4 0.00 0.00 0.00 29 1017.5
20260503183033 18 141 6.4 16.1 0.00 0.00 0.00 33 1017.7
20260503181533 18 207 1.6 11.3 0.00 0.00 0.00 34 1018.1
20260503180032 18 78 8.0 16.1 0.00 0.00 0.00 33 1018.1
20260503174532 17 174 3.2 11.3 0.00 0.00 0.00 34 1018.2
20260503173053 16 207 8.0 19.3 0.00 0.00 0.00 36 1018.5
20260503171532 17 193 1.6 11.3 0.00 0.00 0.00 40 1018.7
20260503081547 0 0 0.0 1.6 0.00 0.00 0.00 95 1017.7
20260503071537 1 0 0.0 3.2 0.00 0.00 0.00 95 1017.2
20260503054536 2 0 0.0 1.6 0.00 0.00 0.00 93 1016.9
20260503053030 2 0 0.0 1.6 0.00 0.00 0.00 93 1016.7
20260503051530 2 177 0.0 1.6 0.00 0.00 0.00 92 1016.7
20260503050028 3 0 0.0 1.6 0.00 0.00 0.00 91 1016.6
20260503044540 3 0 0.0 1.6 0.00 0.00 0.00 91 1016.7
20260503043029 3 0 0.0 4.8 0.00 0.00 0.00 90 1016.5
20260503041535 3 165 1.6 4.8 0.00 0.00 0.00 89 1016.3
20260503040029 4 0 0.0 4.8 0.00 0.00 0.00 89 1016.1
20260503034528 4 0 0.0 3.2 0.00 0.00 0.00 89 1016.0
20260503033027 4 0 0.0 4.8 0.00 0.00 0.00 88 1015.8
20260503031528 5 132 0.0 1.6 0.00 0.00 0.00 86 1015.8
20260503030030 5 0 0.0 6.4 0.00 0.00 0.00 85 1015.8
20260503024528 5 207 1.6 4.8 0.00 0.00 0.00 84 1015.6
20260503023031 6 0 0.0 3.2 0.00 0.00 0.00 82 1015.5
20260503021528 6 183 1.6 3.2 0.00 0.00 0.00 80 1015.2
20260503020028 7 153 1.6 6.4 0.00 0.00 0.00 76 1015.2
20260503014535 8 245 1.6 8.0 0.00 0.00 0.00 71 1015.0
20260503013036 8 266 3.2 6.4 0.00 0.00 0.00 66 1014.8
20260503011530 10 245 1.6 11.3 0.00 0.00 0.00 64 1014.5
20260503010030 11 193 1.6 9.7 0.00 0.00 0.00 52 1014.2
20260503004530 12 58 1.6 6.4 0.00 0.00 0.00 52 1013.9
20260503003030 12 313 0.0 9.7 0.00 0.00 0.00 49 1013.6
20260503001530 12 9 0.0 8.0 0.00 0.00 0.00 46 1013.5
20260503000036 13 74 0.0 20.9 0.00 0.00 0.00 44 1013.2
20260502234531 14 102 4.8 11.3 0.00 0.00 0.00 40 1012.9
20260502233028 15 216 3.2 11.3 0.00 0.00 0.00 39 1012.6
20260502231530 15 219 3.2 8.0 0.00 0.00 0.00 41 1012.4
20260502230032 15 118 3.2 12.9 0.00 0.00 0.00 38 1012.3
20260502224529 16 153 3.2 20.9 0.00 0.00 0.00 37 1012.4
20260502223030 16 149 6.4 20.9 0.00 0.00 0.00 38 1012.3
20260502221534 16 129 3.2 19.3 0.00 0.00 0.00 36 1011.9
20260502220034 16 236 8.0 17.7 0.00 0.00 0.00 37 1011.8
20260502214529 18 160 9.7 24.1 0.00 0.00 0.00 35 1011.4
20260502213027 17 224 6.4 14.5 0.00 0.00 0.00 36 1011.1
20260502211528 17 211 8.0 17.7 0.00 0.00 0.00 39 1011.0
20260502210030 17 191 3.2 9.7 0.00 0.00 0.00 40 1011.0
20260502204528 17 38 4.8 9.7 0.00 0.00 0.00 52 1011.0
20260502203029 16 92 1.6 8.0 0.00 0.00 0.00 53 1011.0
20260502201534 16 146 4.8 14.5 0.00 0.00 0.00 54 1011.1
20260502200028 17 59 3.2 11.3 0.00 0.00 0.00 48 1011.1
20260502194529 17 33 0.0 4.8 0.00 0.00 0.00 50 1011.3
20260502193030 17 0 1.6 6.4 0.00 0.00 0.00 51 1011.6
20260502191533 16 281 1.6 4.8 0.00 0.00 0.00 53 1011.7
20260502190031 16 219 4.8 11.3 0.00 0.00 0.00 54 1011.9